Location: Observatoire de Paris
(48.8363°N, 2.3365°E)
Time: 05:43:08
(UTC+01:00)

METEOR M2 - Pass Details

Date: 28 September 2021
Orbit: 819 x 826 km, 98.5° (Epoch: 19 October)

Event Time Altitude Azimuth Distance (km) Brightness Sun altitude
Rises 19:11:50 0° 160° (SSE) 3,338 ? -6.8°
Reaches altitude 10° 19:14:10 10° 160° (SSE) 2,410 ? -7.2°
Maximum altitude 19:19:30 81° 74° (ENE) 836 ? -8.1°
Drops below altitude 10° 19:24:54 10° 347° (NNW) 2,430 ? -8.9°
Sets 19:27:15 0° 347° (NNW) 3,368 ? -9.3°
